Location: *
(45.5224°N, 122.7471°W)
Time: 03:52:41
(UTC+00:00)

Okean 1 Rocket - Pass Details

Date: 09 April 2020
Orbit: 608 x 633 km, 82.5° (Epoch: 24 May)

Event Time Altitude Azimuth Distance (km) Brightness Sun altitude
Rises 12:58:40 0° 342° (NNW) 2,889 6.5 -7.0°
Reaches altitude 10° 13:01:02 10° 334° (NNW) 1,983 5.6 -6.6°
Maximum altitude 13:05:00 34° 269° (W) 1,014 3.7 -5.9°
Drops below altitude 10° 13:08:58 10° 204° (SSW) 1,982 5.3 -5.3°
Sets 13:11:20 0° 195° (SSW) 2,887 6.2 -4.9°
